Change the Weather History Date:

Sunday, March 10, 2013

  Actual Average Record
Temperature  
Mean Temperature 71 °F -  
Max Temperature 82 °F 73 °F 93 °F (2006)
Min Temperature 59 °F 54 °F 39 °F (1998)
Cooling Degree Days 6    
Growing Degree Days 21 (Base 50)    
Moisture  
Dew Point 48 °F    
Average Humidity 55    
Maximum Humidity 94    
Minimum Humidity 14    
Precipitation  
Precipitation 0.02 in - - ()
Sea Level Pressure  
Sea Level Pressure 29.82 in    
Wind  
Wind Speed 17 mph (NNW)    
Max Wind Speed 25 mph    
Max Gust Speed 33 mph    
Visibility 9 miles    
Events Rain    
Averages and records for this station are not official NWS values.
T = Trace of Precipitation, MM = Missing Value Source: NWS Daily Summary

Daily Weather History Graph

Daily Weather History Graph

Search for Another Location

Airport or City:

Trip Planner

Search our weather history database for the weather conditions in past years. The results will help you decide how hot, cold, wet, or windy it might be!

Date:

Astronomy

Mar. 10, 2013 Rise Set
Actual Time 7:46 AM CDT 7:38 PM CDT
Civil Twilight 7:23 AM CDT 8:01 PM CDT
Nautical Twilight 6:56 AM CDT 8:28 PM CDT
Astronomical Twilight 6:29 AM CDT 8:55 PM CDT
Moon 6:44 AM CDT (3/10) 6:47 PM CDT (3/10)
Length of Visible Light 12h 38m
Length of Day
11h 51m
Waning Crescent, 2% of the Moon is Illuminated
Mar 10
Waning Crescent
Mar 11
New
Mar 19
First Quarter
Mar 27
Full
Apr 2
Last Quarter

Hourly Weather History & Observations

Time (CDT) Temp. Dew Point Humidity Pressure Visibility Wind Dir Wind Speed Gust Speed Precip Events Conditions
12:53 AM 72.0 °F 64.9 °F 78% 29.60 in 10.0 mi South 21.9 mph 29.9 mph N/A   Mostly Cloudy
1:53 AM 72.0 °F 64.9 °F 78% 29.58 in 10.0 mi South 23.0 mph 31.1 mph N/A   Overcast
3:53 AM 73.0 °F 64.9 °F 76% 29.59 in 10.0 mi South 20.7 mph 28.8 mph N/A   Overcast
4:28 AM 73.4 °F 64.4 °F 73% 29.68 in 10.0 mi WNW 12.7 mph - N/A   Overcast
4:53 AM 73.9 °F 64.9 °F 73% 29.68 in 10.0 mi West 12.7 mph 20.7 mph N/A   Overcast
5:53 AM 70.0 °F 66.0 °F 87% 29.71 in 4.0 mi NW 9.2 mph - 0.02 in Rain Rain
6:03 AM 69.8 °F 66.2 °F 88% 29.72 in 4.0 mi NW 8.1 mph - 0.01 in Rain Light Rain
6:23 AM 68.0 °F 66.2 °F 94% 29.72 in 7.0 mi Calm Calm - 0.03 in   Overcast
6:53 AM 68.0 °F 66.2 °F 94% 29.73 in 7.0 mi WNW 3.5 mph - N/A   Overcast
7:19 AM 68.0 °F 66.2 °F 94% 29.75 in 6.0 mi NW 5.8 mph - 0.00 in Rain Light Rain
7:32 AM 66.2 °F 62.6 °F 88% 29.76 in 8.0 mi NNW 24.2 mph 31.1 mph 0.00 in Rain Light Rain
7:44 AM 64.4 °F 62.6 °F 94% 29.77 in 10.0 mi NNW 25.3 mph 31.1 mph 0.00 in   Overcast
7:53 AM 63.0 °F 60.1 °F 90% 29.78 in 10.0 mi North 23.0 mph 33.4 mph 0.00 in   Overcast
8:12 AM 62.6 °F 57.2 °F 82% 29.79 in 10.0 mi North 23.0 mph 28.8 mph N/A   Overcast
8:53 AM 64.0 °F 53.1 °F 67% 29.82 in 10.0 mi North 20.7 mph 27.6 mph N/A   Overcast
9:02 AM 64.4 °F 53.6 °F 68% 29.83 in 10.0 mi North 19.6 mph 25.3 mph N/A   Overcast
9:53 AM 66.0 °F 52.0 °F 60% 29.85 in 10.0 mi North 17.3 mph 23.0 mph N/A   Overcast
10:53 AM 69.1 °F 48.0 °F 47% 29.89 in 10.0 mi NNE 16.1 mph 24.2 mph N/A   Overcast
11:53 AM 73.0 °F 39.9 °F 30% 29.90 in 10.0 mi North 19.6 mph 26.5 mph N/A   Scattered Clouds
12:53 PM 75.9 °F 39.9 °F 27% 29.90 in 10.0 mi North 19.6 mph 26.5 mph N/A   Partly Cloudy
1:53 PM 79.0 °F 35.1 °F 20% 29.88 in 10.0 mi North 17.3 mph 25.3 mph N/A   Clear
2:53 PM 82.0 °F 32.0 °F 16% 29.86 in 10.0 mi North 19.6 mph 28.8 mph N/A   Clear
3:53 PM 81.0 °F 30.0 °F 16% 29.84 in 10.0 mi North 16.1 mph 26.5 mph N/A   Clear
4:53 PM 80.1 °F 26.1 °F 14% 29.84 in 10.0 mi North 20.7 mph 27.6 mph N/A   Clear
5:53 PM 79.0 °F 27.0 °F 15% 29.85 in 10.0 mi North 18.4 mph 27.6 mph N/A   Clear
6:53 PM 75.0 °F 25.0 °F 16% 29.88 in 10.0 mi North 17.3 mph 25.3 mph N/A   Clear
7:53 PM 70.0 °F 27.0 °F 20% 29.91 in 10.0 mi North 12.7 mph - N/A   Clear
8:53 PM 66.2 °F 28.4 °F 24% 29.96 in 10.0 mi North 11.5 mph - N/A   Clear
9:53 PM 64.0 °F 28.9 °F 27% 30.01 in 10.0 mi North 11.5 mph - N/A   Clear
10:53 PM 63.0 °F 30.9 °F 30% 30.06 in 10.0 mi North 15.0 mph - N/A   Clear
11:53 PM 60.1 °F 30.9 °F 33% 30.08 in 10.0 mi North 9.2 mph - N/A   Clear
12:53 AM 59.0 °F 30.0 °F 33% 30.08 in 10.0 mi North 10.4 mph - N/A   Clear